FW6229 Weather Reports


time (UTC)temp
F
wind
direction
speed
knots
gust
knots
rain 1hr
in
rain 24hr
in
rain mn
in
humidity
%
barometer
mb
20260506121502 59 95 0.0 0.0 0.00 0.00 0.00 66 1013.6
20260506120003 60 142 0.0 0.0 0.00 0.00 0.00 66 1013.6
20260506114503 60 53 0.0 3.5 0.00 0.00 0.00 65 1013.5
20260506113003 60 115 0.0 0.0 0.00 0.00 0.00 63 1013.4
20260506111502 60 24 0.0 0.0 0.00 0.00 0.00 64 1013.2
20260506110003 61 123 0.0 0.9 0.00 0.00 0.00 64 1013.3
20260506104503 61 69 0.0 0.9 0.00 0.00 0.00 63 1013.1
20260506103003 62 107 0.0 0.0 0.00 0.00 0.00 62 1012.9
20260506101504 62 88 0.0 0.0 0.00 0.00 0.00 61 1012.7
20260506100004 62 136 0.0 0.0 0.00 0.00 0.00 60 1012.6
20260506094503 63 110 0.0 0.0 0.00 0.00 0.00 57 1012.5
20260506093004 64 78 0.0 1.7 0.00 0.00 0.00 56 1012.4
20260506090003 65 132 0.0 5.2 0.00 0.00 0.00 54 1012.4
20260506083003 66 157 0.0 7.8 0.00 0.00 0.00 54 1012.1
20260506081503 66 147 0.0 2.6 0.00 0.00 0.00 51 1012.0
20260506073002 67 132 0.0 0.0 0.00 0.00 0.00 49 1011.6
20260506071502 67 202 0.0 0.0 0.00 0.00 0.00 50 1011.4
20260506061505 67 161 0.0 0.0 0.00 0.00 0.00 48 1010.9
20260506044504 69 71 0.0 0.0 0.00 0.00 0.00 42 1009.7
20260506040004 73 117 0.0 0.0 0.00 0.00 0.00 37 1009.0
20260506034504 74 117 0.0 0.0 0.00 0.00 0.00 36 1008.9
20260506033005 75 86 0.0 0.0 0.00 0.00 0.00 34 1008.4
20260506030005 78 128 0.0 0.0 0.00 0.00 0.00 31 1008.0
20260506024504 80 216 0.0 0.0 0.00 0.00 0.00 28 1007.9
20260506023003 81 86 0.0 0.0 0.00 0.00 0.00 26 1007.7
20260506021502 83 155 0.0 0.0 0.00 0.00 0.00 26 1007.7
20260506014506 85 66 0.0 0.0 0.00 0.00 0.00 24 1007.7
20260506013004 85 167 0.0 0.0 0.00 0.00 0.00 23 1007.5
20260506011506 85 94 0.0 0.0 0.00 0.00 0.00 24 1007.5
20260506010005 84 169 0.0 0.0 0.00 0.00 0.00 26 1007.5
20260506003005 81 169 0.0 0.0 0.00 0.00 0.00 28 1007.6
20260506001504 79 175 0.0 0.0 0.00 0.00 0.00 32 1007.8
20260506000005 77 205 0.0 0.0 0.00 0.00 0.00 36 1007.9
20260505234505 78 185 0.0 0.0 0.00 0.00 0.00 40 1008.0
20260505233007 83 161 0.0 0.0 0.00 0.00 0.00 32 1008.1
20260505231501 84 198 0.0 0.0 0.00 0.00 0.00 26 1008.3
20260505230005 84 170 0.0 0.0 0.00 0.00 0.00 27 1008.4
20260505224505 80 178 0.0 0.0 0.00 0.00 0.00 31 1008.5
20260505223005 75 144 0.0 0.0 0.00 0.00 0.00 41 1008.7
20260505221504 73 253 0.0 0.0 0.00 0.00 0.00 53 1008.9
20260505220002 72 109 0.0 0.0 0.00 0.00 0.00 52 1009.2
20260505214505 72 229 0.0 0.0 0.00 0.00 0.00 48 1009.4
20260505213000 71 230 0.0 0.0 0.00 0.00 0.00 52 1009.6
20260505211504 71 230 0.0 0.0 0.00 0.00 0.00 49 1009.9
20260505210006 70 230 0.0 0.0 0.00 0.00 0.00 51 1010.2
20260505204504 69 230 0.0 0.0 0.00 0.00 0.00 55 1010.4
20260505203000 68 230 0.0 0.0 0.00 0.00 0.00 57 1010.7
20260505201506 67 230 0.0 0.0 0.00 0.00 0.00 55 1011.0
20260505200004 66 230 0.0 0.0 0.00 0.00 0.00 53 1011.1
20260505194501 65 229 0.0 0.0 0.00 0.00 0.00 54 1011.3
20260505193006 64 134 0.0 0.0 0.00 0.00 0.00 60 1011.6
20260505191504 62 134 0.0 0.0 0.00 0.00 0.00 64 1011.9
20260505190008 61 134 0.0 0.0 0.00 0.00 0.00 67 1012.2
20260505184506 60 134 0.0 0.0 0.00 0.00 0.00 79 1012.4
20260505183004 59 134 0.0 0.0 0.00 0.00 0.00 85 1012.6
20260505181505 58 134 0.0 0.0 0.00 0.00 0.00 86 1012.8
20260505180005 56 134 0.0 0.0 0.00 0.00 0.00 84 1013.1
20260505174500 55 134 0.0 0.0 0.00 0.00 0.00 92 1013.3
20260505173001 54 134 0.0 0.0 0.00 0.00 0.00 93 1013.4
20260505171504 54 134 0.0 0.0 0.00 0.00 0.00 94 1013.5
20260505170002 52 134 0.0 0.0 0.00 0.00 0.00 94 1013.6
20260505164506 50 134 0.0 0.0 0.00 0.00 0.00 93 1013.8
20260505163001 49 134 0.0 0.0 0.00 0.00 0.00 92 1014.1
20260505153005 48 134 0.0 0.0 0.00 0.00 0.00 90 1014.4
20260505151505 47 134 0.0 0.0 0.00 0.00 0.00 87 1014.4
20260505124500 48 134 0.0 0.0 0.00 0.00 0.00 79 1013.7
20260505123000 48 134 0.0 0.0 0.00 0.00 0.00 78 1013.5